AFR62HP LFBO-LFPG

Flight info

Callsign AFR62HP
Flight time N/A
Altitude 32000
Route FISTO DCT POI DCT PEPAX UT182 KEPER
Aircraft A321/M-SDE2E3FGIJ1RWY/HB1

Departure

Time 2026-05-07 18:27
Airport Toulouse-Blagnac Airport (LFBO)

Arrival

Time N/A
Airport Charles de Gaulle International Airport (LFPG)
Time Latitude Longitude Altitude Speed Heading
2026-05-07 18:01 43.63034 1.37242 494 ft 0 kts 53°
2026-05-07 18:01 43.63034 1.37241 494 ft 0 kts 53°
2026-05-07 18:06 43.63034 1.37242 494 ft 0 kts 53°
2026-05-07 18:07 43.63034 1.37241 494 ft 0 kts 53°
2026-05-07 18:17 43.63029 1.37233 494 ft 4 kts 54°
2026-05-07 18:18 43.63015 1.37202 485 ft 4 kts 63°
2026-05-07 18:18 43.63005 1.37168 486 ft 4 kts 84°
2026-05-07 18:18 43.63005 1.37146 485 ft 4 kts 117°
2026-05-07 18:18 43.63010 1.37135 488 ft 0 kts 140°
2026-05-07 18:21 43.63006 1.37140 486 ft 4 kts 140°
2026-05-07 18:21 43.62977 1.37172 487 ft 6 kts 142°
2026-05-07 18:22 43.62939 1.37201 492 ft 8 kts 166°
2026-05-07 18:22 43.62898 1.37180 487 ft 10 kts 221°
2026-05-07 18:22 43.62839 1.37078 490 ft 10 kts 231°
2026-05-07 18:22 43.62774 1.37076 494 ft 10 kts 155°
2026-05-07 18:23 43.62716 1.37134 486 ft 11 kts 141°
2026-05-07 18:23 43.62654 1.37199 488 ft 12 kts 144°
2026-05-07 18:23 43.62587 1.37269 486 ft 13 kts 143°
2026-05-07 18:23 43.62515 1.37344 486 ft 13 kts 143°
2026-05-07 18:24 43.62437 1.37425 488 ft 14 kts 143°
2026-05-07 18:24 43.62354 1.37512 489 ft 15 kts 143°
2026-05-07 18:24 43.62274 1.37595 490 ft 13 kts 142°
2026-05-07 18:24 43.62207 1.37660 488 ft 11 kts 155°
2026-05-07 18:25 43.62140 1.37628 486 ft 11 kts 226°
2026-05-07 18:25 43.62092 1.37544 488 ft 11 kts 231°
2026-05-07 18:25 43.62107 1.37459 490 ft 10 kts 320°
2026-05-07 18:25 43.62123 1.37441 485 ft 0 kts 322°
2026-05-07 18:26 43.62174 1.37386 487 ft 38 kts 322°
2026-05-07 18:26 43.62583 1.36964 489 ft 106 kts 323°
2026-05-07 18:26 43.63322 1.36202 493 ft 157 kts 324°
2026-05-07 18:26 43.64235 1.35293 1081 ft 150 kts 325°
2026-05-07 18:27 43.65057 1.34429 1715 ft 150 kts 322°
2026-05-07 18:27 43.65853 1.33538 2156 ft 151 kts 322°
2026-05-07 18:27 43.66720 1.32567 2370 ft 171 kts 321°
2026-05-07 18:27 43.67700 1.31470 2532 ft 192 kts 322°
2026-05-07 18:28 43.68796 1.30249 2676 ft 213 kts 322°
2026-05-07 18:28 43.70007 1.28902 2797 ft 235 kts 322°
2026-05-07 18:28 43.71356 1.27422 2989 ft 259 kts 325°
2026-05-07 18:28 43.73019 1.26427 3543 ft 265 kts 347°
2026-05-07 18:29 43.74819 1.25833 4310 ft 267 kts 347°
2026-05-07 18:29 43.76628 1.25242 5105 ft 267 kts 348°
2026-05-07 18:29 43.78475 1.24956 5857 ft 268 kts 356°
2026-05-07 18:29 43.80350 1.24856 6565 ft 271 kts 358°
2026-05-07 18:30 43.82253 1.24809 7215 ft 275 kts 358°
2026-05-07 18:30 43.84177 1.24775 7880 ft 278 kts 358°
2026-05-07 18:30 43.86127 1.24736 8528 ft 282 kts 358°
2026-05-07 18:30 43.88108 1.24687 9168 ft 287 kts 357°
2026-05-07 18:31 43.90116 1.24630 9802 ft 291 kts 357°
2026-05-07 18:31 43.92167 1.24566 10210 ft 303 kts 357°
2026-05-07 18:31 43.94345 1.24496 10341 ft 323 kts 357°
2026-05-07 18:31 43.96662 1.24420 10494 ft 341 kts 357°
2026-05-07 18:32 43.99067 1.24341 10928 ft 349 kts 357°
2026-05-07 18:32 44.01506 1.24261 11493 ft 352 kts 357°
2026-05-07 18:32 44.03967 1.24177 12069 ft 356 kts 357°
2026-05-07 18:32 44.06457 1.24092 12640 ft 359 kts 357°
2026-05-07 18:33 44.08969 1.24003 13203 ft 363 kts 357°
2026-05-07 18:33 44.11506 1.23913 13755 ft 367 kts 357°
2026-05-07 18:33 44.14071 1.23825 14264 ft 370 kts 357°
2026-05-07 18:33 44.16653 1.23737 14779 ft 373 kts 357°
2026-05-07 18:34 44.19255 1.23647 15288 ft 375 kts 356°
2026-05-07 18:34 44.21874 1.23556 15790 ft 378 kts 356°
2026-05-07 18:34 44.24513 1.23469 16279 ft 381 kts 356°
2026-05-07 18:34 44.27176 1.23382 16763 ft 384 kts 356°
2026-05-07 18:35 44.29853 1.23292 17234 ft 386 kts 356°
2026-05-07 18:35 44.32549 1.23202 17709 ft 389 kts 356°
2026-05-07 18:35 44.35265 1.23112 18178 ft 391 kts 356°
2026-05-07 18:35 44.37997 1.23018 18576 ft 394 kts 356°
2026-05-07 18:36 44.40748 1.22917 18956 ft 397 kts 356°
2026-05-07 18:36 44.43515 1.22815 19326 ft 399 kts 356°
2026-05-07 18:36 44.46244 1.22490 19666 ft 400 kts 347°
2026-05-07 18:36 44.48937 1.21544 20000 ft 399 kts 340°
2026-05-07 18:37 44.51604 1.20404 20343 ft 402 kts 340°
2026-05-07 18:37 44.54286 1.19267 20691 ft 404 kts 341°
2026-05-07 18:37 44.56988 1.18128 21037 ft 407 kts 341°
2026-05-07 18:37 44.59706 1.16983 21381 ft 409 kts 341°
2026-05-07 18:38 44.62437 1.15832 21735 ft 411 kts 341°
2026-05-07 18:38 44.65186 1.14667 22075 ft 414 kts 341°
2026-05-07 18:38 44.67944 1.13494 22449 ft 416 kts 340°
2026-05-07 18:38 44.70721 1.12313 22796 ft 418 kts 340°
2026-05-07 18:39 44.73511 1.11126 23140 ft 420 kts 341°
2026-05-07 18:39 44.76319 1.09929 23479 ft 423 kts 340°
2026-05-07 18:39 44.79141 1.08729 23787 ft 425 kts 340°
2026-05-07 18:39 44.81980 1.07522 24075 ft 427 kts 340°
2026-05-07 18:40 44.84829 1.06309 24360 ft 429 kts 340°
2026-05-07 18:40 44.87229 1.05282 24615 ft 431 kts 340°
2026-05-07 18:40 44.90105 1.04048 24913 ft 433 kts 340°